Regional Weather Roundup
Issued by NWS Charleston, SC

Current Version | Previous Version | Graphics & Text | Print | Product List | Glossary On
Versions: 1 2 3 4 5 6 7 8 9 10 11 12 13 14 15 16 17 18 19 20 21 22 23 24 25 26 27 28 29 30 31 32 33 34 35 36 37 38 39 40 41 42 43 44 45 46 47 48 49 50
000 ASUS42 KCHS 290428 RWRCHS REGIONAL WEATHER ROUNDUP NATIONAL WEATHER SERVICE CHARLESTON SC 1200 AM EDT THU SEP 29 2016 NOTE: "FAIR" INDICATES FEW OR NO CLOUDS BELOW 12,000 FEET WITH NO SIGNIFICANT WEATHER AND/OR OBSTRUCTIONS TO VISIBILITY. NOT ALL STATIONS ARE QUALITY CONTROLLED. USE DATA WITH CAUTION... ESPECIALLY DEWPOINT OBSERVATIONS. SCZ027-030-031-034>040-042>050-290500- ...SOUTHEAST SOUTH CAROLINA... CITY SKY/WX TMP DP RH WIND PRES REMARKS N CHARLESTON PTCLDY 78 74 87 S8 29.96R WATERFRONT PRK N/A 80 77 90 S8 29.94S MOUNT PLEASANT FAIR 81 75 83 S9 29.96S JOHNS ISLAND FAIR 81 75 83 S8 29.96S PINOPOLIS N/A 77 75 94 CALM 29.88S MONCKS CORNER MOCLDY 75 73 94 S5 29.95S SUMMERVILLE NOT AVBL BEAUFORT MCAS CLEAR 80 75 84 S5 29.95F BEAUFORT ARPT FAIR 79 77 94 S7 29.95S HILTON HEAD IS PTCLDY 81 75 83 SW8 29.96S WALTERBORO CLEAR 79 79 100 S6 29.96S ALLENDALE FAIR 77 73 88 MISG 29.93S ...SOUTHERN MIDLANDS AND PEE DEE... CITY SKY/WX TMP DP RH WIND PRES REMARKS GEORGETOWN FAIR 75 72 88 S3 29.98S KINGSTREE FAIR 73 72 94 SE6 29.95S ORANGEBURG CLEAR 76 72 87 S9 29.94R BARNWELL NOT AVBL AIKEN FAIR 73 68 83 S5 29.96S MANNING FAIR 77 72 83 S6 29.95S COLUMBIA MOCLDY 78 71 79 SW5 29.92F SUMTER PTCLDY 76 71 83 S7 29.91S FLORENCE MOCLDY 77 74 90 S12 29.94F MYRTLE BEACH CLOUDY 81 68 65 S12 N/A N MYRTLE BEACH PTCLDY 80 72 76 S12 29.97F $$ GAZ063-065-086>088-099>101-113>116-118-119-134>141-150-290500- ...SOUTHEAST GEORGIA... CITY SKY/WX TMP DP RH WIND PRES REMARKS SAVANNAH ARPT MOCLDY 78 72 81 SW8 29.96S HUNTER AAF CLOUDY 78 76 95 S6 29.93F FORT STEWART CLOUDY 75 71 86 CALM 29.94S STATESBORO CLEAR 76 73 91 S6 29.95S SYLVANIA NOT AVBL CLAXTON FAIR 76 74 92 CALM 29.95S ...CSRA...CENTRAL AND FAR SOUTHEAST GEORGIA... CITY SKY/WX TMP DP RH WIND PRES REMARKS THOMSON CLEAR 73 69 89 CALM 29.96S AUGUSTA-BUSH CLOUDY 77 69 76 S6 29.91R AUGUSTA-DANIEL CLEAR 79 67 66 SW3 29.92S SWAINSBORO FAIR 77 70 78 CALM 29.95S VIDALIA PTCLDY 77 73 88 SW7 29.96S EASTMAN FAIR 77 65 65 SW3 29.97F HAZLEHURST FAIR 78 75 90 N6 29.95S ALMA CLEAR 75 72 90 S6 29.97R WAYCROSS CLEAR 78 76 96 SW5 29.98S JESUP FAIR 77 75 94 SW5 29.97S BAXLEY FAIR 75 75 100 S5 29.97R BRUNSWICK PTCLDY 77 75 94 SW8 29.98S SAINT SIMONS PTCLDY 78 73 84 SW8 29.98R $$ SCZ027-028-034-036>038-045-046-048>050-GAZ119-141-290500- ...LAKE AND SUPPLEMENTAL COASTAL OBSERVATIONS... STATION/POSITION TIME TEMP WIND PRES WAVE SWELL AIR SEA DIR/SP/G HT/PER HT/PER/DIR (UTC) (F) (DEG/KT/KT) (MB) (FT/S) (FT/S/D) WINYAH BAY 0330 80 180/ 6 1014.0S LAKE MURRAY 0420 76 130/ 3/ 4 1012.5 ACE BASIN NERRS 0345 80 CALM 1015.0S FORT PULASKI 0400 80 82 200/ 7/ 11 1014.9 SAPELO ISLAND 0400 78 200/ 6 1015.0 $$ ANZ835-935-AMZ111-154-330-350-352-354-370-450-454-472-290500- ...C-MAN AND BUOY OBSERVATIONS... STATION/POSITION TIME TEMP WIND PRES WAVE SWELL AIR SEA DIR/SP/G HT/PER HT/PER/DIR (UTC) (F) (DEG/KT/KT) (MB) (FT/S) (FT/S/D) BUOY 41004 0350 83 82 190/ 12/ 16 1014.5F 3/ 9 2/120/ 9 BUOY 41008 0350 82 82 210/ 16/ 17 1014.6R 3/ 4 2/120/11 FOLLY BEACH CMAN 0400 81 200/ 16/ 19 1014.7S CAPERS NEARSHORE 0308 81 81 200/ 16/ 19 1014.9R FRIPP NEARSHORE 0308 81 81 200/ 16/ 21 1014.7R STATION/POSITION TIME TEMP WIND PRES WAVE SWELL AIR SEA DIR/SP/G HT/PER HT/PER/DIR (UTC) (F) (DEG/KT/KT) (MB) (FT/S) (FT/S/D) 5E ST. MARYS GA 0301 82 N/A 2/13 2/110/13 FRYING PAN BUOY 0410 82 82 170/ 12/ 14 1015.1 BUOY 41025 0350 81 83 150/ 14/ 16 1016.1S 4/ 7 3/100/ 7 CAPE LOOKOUT NC 0400 80 160/ 8/ 9 1015.5S BUOY 41002 0350 81 83 190/ 16/ 19 1016.7F 4/ 6 2/ 40/11 BUOY 41010 NOT AVBL ST AUGUSTINE FL 0400 73 84 260/ 7/ 9 1017.0R $$

USA.gov is the U.S. government's official web portal to all federal, state and local government web resources and services.